World > North America > United States > Pennsylvania > Kdka-Am Pittsburgh

Hourly Kdka-Am Pittsburgh, PA Regional Weather

Feedback E-mail the Weather

Quick WX

Kdka-Am Pittsburgh, PA Weather Maps

°F °C°F °C
Kdka-Am Pittsburgh Weather Map
UTC Time: 8/7/2022, 19:12
Your Time:

Kdka-Am Pittsburgh, PA Regional Weather

Expires:202208072000;;631800
ASUS41 KCTP 071910
RWRCTP

REGIONAL WEATHER ROUNDUP
NATIONAL WEATHER SERVICE STATE COLLEGE PA
300 PM EDT SUN AUG 07 2022

Note: "fair" indicates few or no clouds below 12,000 feet with no 
significant weather and/or obstructions to visibility.

* = STATION THAT DOES NOT REPORT PRECIPITATION /E.G. RAIN...SNOW...ETC/
    THUNDER OR FOG.


PAZ002>004-007>009-013>016-020>023-029>032-072000-
WESTERN PENNSYLVANIA
  
CITY           SKY/WX    TMP DP  RH WIND       PRES   REMARKS
ERIE           MOSUNNY   86  73  65 W9        30.08S                  
MEADVILLE      MOSUNNY   84  71  65 S8        30.13F                  
FRANKLIN       MOSUNNY   83  73  72 VRB7      30.16S                  
NEW CASTLE     FAIR      87  74  64 VRB7      30.13F HX  95           
BEAVER COUNTY  MOSUNNY   90  71  52 SW5       30.15S HX  96           
BUTLER         CLOUDY   N/A N/A N/A W7        30.15F                  
PITTSBURGH INT MOSUNNY   85  70  60 S8        30.14F                  
PITTSBURGH     PTSUNNY   82  73  74 SE9       30.15F                  
INDIANA*       PTSUNNY   82  72  69 W20       30.20S                  
LATROBE        PTSUNNY   77  73  88 CALM      30.18S                  
WASHINGTON CO* LGT RAIN  77  72  84 SW7       30.19F                  
$$


SKY/WX - Weather  TMP - Temperature  DP - Dew Point  RH - Humidity
WIND - Wind Direction/Speed PRES - Barometric Pressure VSB - Visibility
WCI - Wind Chill Index E13G22 Wind - East Wind 13 mph/Gusts of 22 mph

Trending Headlines

Kdka-Am Pittsburgh Radar Loop



Kdka-Am Pittsburgh Quick Facts


National Two Day Weather Forecast


E-mail the Kdka-Am Pittsburgh Weather Forecast

Voice your opinion or tell us about page issues...